Saint Bonnet de Bellac- Haute Vienne - France
Donnes mto: samedi, 19/11/2011
Date Horaire Temp. E. Hum. E. P.atmo. Pluie Vent Direction Direction Ensoleilleme Solaire P. de rose Temp au vent Rafales
19/11/2011 00:00 10,1 C 76 % 1014,5 hPa 0,0 mm 8,6 km/h (2 Bft) S-SO 202 0 min 0 W/m 6,1 C 10,1 C 11,2 km/h (2 Bft)
19/11/2011 00:05 10,1 C 76 % 1014,5 hPa 0,0 mm 6,5 km/h (2 Bft) S-SE 157 0 min 0 W/m 6,1 C 10,1 C 11,2 km/h (2 Bft)
19/11/2011 00:10 10,1 C 77 % 1014,5 hPa 0,0 mm 1,8 km/h (1 Bft) S-SE 157 0 min 0 W/m 6,3 C 10,1 C 2,9 km/h (1 Bft)
19/11/2011 00:15 10,0 C 77 % 1014,4 hPa 0,0 mm 5,4 km/h (2 Bft) S 180 0 min 0 W/m 6,2 C 9,6 C 8,6 km/h (2 Bft)
19/11/2011 00:20 9,9 C 77 % 1014,4 hPa 0,0 mm 6,5 km/h (2 Bft) SE 135 0 min 0 W/m 6,1 C 9,2 C 7,9 km/h (2 Bft)
19/11/2011 00:25 9,9 C 78 % 1014,4 hPa 0,0 mm 4,0 km/h (1 Bft) E-SE 112 0 min 0 W/m 6,2 C 9,9 C 4,0 km/h (1 Bft)
19/11/2011 00:30 9,9 C 78 % 1014,4 hPa 0,0 mm 6,5 km/h (2 Bft) E-SE 112 0 min 0 W/m 6,2 C 9,2 C 8,3 km/h (2 Bft)
19/11/2011 00:35 9,9 C 78 % 1014,3 hPa 0,0 mm 9,4 km/h (2 Bft) S-SE 157 0 min 0 W/m 6,2 C 8,6 C 14,4 km/h (3 Bft)
19/11/2011 00:40 10,0 C 78 % 1014,3 hPa 0,0 mm 4,0 km/h (1 Bft) SE 135 0 min 0 W/m 6,3 C 10,0 C 9,0 km/h (2 Bft)
19/11/2011 00:45 10,0 C 78 % 1014,3 hPa 0,0 mm 4,7 km/h (1 Bft) SE 135 0 min 0 W/m 6,3 C 9,8 C 4,7 km/h (1 Bft)
19/11/2011 00:50 9,9 C 78 % 1014,3 hPa 0,0 mm 6,5 km/h (2 Bft) S-SE 157 0 min 0 W/m 6,2 C 9,2 C 14,0 km/h (3 Bft)
19/11/2011 00:55 9,9 C 78 % 1014,3 hPa 0,0 mm 3,2 km/h (1 Bft) S-SO 202 0 min 0 W/m 6,2 C 9,9 C 8,3 km/h (2 Bft)
19/11/2011 01:00 9,9 C 78 % 1014,3 hPa 0,0 mm 6,8 km/h (2 Bft) S 180 0 min 0 W/m 6,2 C 9,2 C 9,7 km/h (2 Bft)
19/11/2011 01:05 9,9 C 78 % 1014,2 hPa 0,0 mm 3,6 km/h (1 Bft) S-SE 157 0 min 0 W/m 6,2 C 9,9 C 12,2 km/h (2 Bft)
19/11/2011 01:10 9,9 C 79 % 1014,1 hPa 0,0 mm 8,3 km/h (2 Bft) SE 135 0 min 0 W/m 6,4 C 8,8 C 9,4 km/h (2 Bft)
19/11/2011 01:15 9,9 C 79 % 1014,2 hPa 0,0 mm 5,0 km/h (1 Bft) O-SO 247 0 min 0 W/m 6,4 C 9,6 C 9,4 km/h (2 Bft)
19/11/2011 01:20 10,0 C 79 % 1014,1 hPa 0,0 mm 5,4 km/h (2 Bft) S 180 0 min 0 W/m 6,5 C 9,6 C 14,0 km/h (3 Bft)
19/11/2011 01:25 10,0 C 79 % 1014,0 hPa 0,0 mm 9,0 km/h (2 Bft) S-SO 202 0 min 0 W/m 6,5 C 8,8 C 13,7 km/h (3 Bft)
19/11/2011 01:30 10,1 C 79 % 1014,0 hPa 0,0 mm 4,7 km/h (1 Bft) S-SE 157 0 min 0 W/m 6,6 C 10,1 C 6,8 km/h (2 Bft)
19/11/2011 01:35 10,1 C 78 % 1013,9 hPa 0,0 mm 9,7 km/h (2 Bft) E-SE 112 0 min 0 W/m 6,4 C 10,1 C 14,4 km/h (3 Bft)
19/11/2011 01:40 10,1 C 79 % 1013,9 hPa 0,0 mm 3,6 km/h (1 Bft) S-SO 202 0 min 0 W/m 6,6 C 10,1 C 8,3 km/h (2 Bft)
19/11/2011 01:45 10,1 C 79 % 1013,9 hPa 0,0 mm 10,8 km/h (2 Bft) S-SE 157 0 min 0 W/m 6,6 C 10,1 C 11,5 km/h (2 Bft)
19/11/2011 01:50 10,1 C 79 % 1013,9 hPa 0,0 mm 8,3 km/h (2 Bft) S 180 0 min 0 W/m 6,6 C 10,1 C 11,9 km/h (2 Bft)
19/11/2011 01:55 10,1 C 79 % 1013,9 hPa 0,0 mm 7,6 km/h (2 Bft) SE 135 0 min 0 W/m 6,6 C 10,1 C 11,2 km/h (2 Bft)
19/11/2011 02:02 10,2 C 79 % 1013,9 hPa 0,0 mm 6,1 km/h (2 Bft) S 180 0 min 0 W/m 6,7 C 10,2 C 7,9 km/h (2 Bft)
19/11/2011 02:05 10,2 C 79 % 1013,8 hPa 0,0 mm 9,0 km/h (2 Bft) S-SE 157 0 min 0 W/m 6,7 C 10,2 C 10,4 km/h (2 Bft)
19/11/2011 02:10 10,2 C 79 % 1013,8 hPa 0,0 mm 7,2 km/h (2 Bft) E-SE 112 0 min 0 W/m 6,7 C 10,2 C 9,7 km/h (2 Bft)
19/11/2011 02:15 10,1 C 79 % 1013,9 hPa 0,0 mm 6,1 km/h (2 Bft) SE 135 0 min 0 W/m 6,6 C 10,1 C 11,9 km/h (2 Bft)
19/11/2011 02:20 10,1 C 79 % 1013,8 hPa 0,0 mm 0,4 km/h (0 Bft) E-SE 112 0 min 0 W/m 6,6 C 10,1 C 0,4 km/h (0 Bft)
19/11/2011 02:25 10,1 C 79 % 1013,7 hPa 0,0 mm 2,2 km/h (1 Bft) S 180 0 min 0 W/m 6,6 C 10,1 C 6,5 km/h (2 Bft)
19/11/2011 02:30 10,0 C 79 % 1013,8 hPa 0,0 mm 4,7 km/h (1 Bft) S 180 0 min 0 W/m 6,5 C 9,8 C 7,9 km/h (2 Bft)
19/11/2011 02:35 9,9 C 79 % 1013,7 hPa 0,0 mm 3,6 km/h (1 Bft) E-SE 112 0 min 0 W/m 6,4 C 9,9 C 3,6 km/h (1 Bft)
19/11/2011 02:40 9,9 C 80 % 1013,7 hPa 0,0 mm 2,5 km/h (1 Bft) S-SE 157 0 min 0 W/m 6,6 C 9,9 C 7,2 km/h (2 Bft)
19/11/2011 02:45 9,9 C 80 % 1013,7 hPa 0,0 mm 4,3 km/h (1 Bft) SE 135 0 min 0 W/m 6,6 C 9,9 C 4,3 km/h (1 Bft)
19/11/2011 02:50 9,9 C 80 % 1013,7 hPa 0,0 mm 2,9 km/h (1 Bft) E-SE 112 0 min 0 W/m 6,6 C 9,9 C 11,2 km/h (2 Bft)
19/11/2011 02:55 9,8 C 80 % 1013,7 hPa 0,0 mm 0,4 km/h (0 Bft) SE 135 0 min 0 W/m 6,5 C 9,8 C 0,4 km/h (0 Bft)
19/11/2011 03:00 9,8 C 80 % 1013,7 hPa 0,0 mm 1,8 km/h (1 Bft) SE 135 0 min 0 W/m 6,5 C 9,8 C 4,3 km/h (1 Bft)
19/11/2011 03:05 9,7 C 80 % 1013,6 hPa 0,0 mm 2,9 km/h (1 Bft) E 90 0 min 0 W/m 6,4 C 9,7 C 6,1 km/h (2 Bft)
19/11/2011 03:10 9,6 C 80 % 1013,6 hPa 0,0 mm 1,8 km/h (1 Bft) S-SE 157 0 min 0 W/m 6,3 C 9,6 C 4,0 km/h (1 Bft)
19/11/2011 03:15 9,6 C 80 % 1013,6 hPa 0,0 mm 5,0 km/h (1 Bft) E-SE 112 0 min 0 W/m 6,3 C 9,3 C 5,0 km/h (1 Bft)
19/11/2011 03:20 9,6 C 81 % 1013,6 hPa 0,0 mm 1,8 km/h (1 Bft) E-SE 112 0 min 0 W/m 6,5 C 9,6 C 5,8 km/h (2 Bft)
19/11/2011 03:25 9,6 C 81 % 1013,6 hPa 0,0 mm 1,8 km/h (1 Bft) SE 135 0 min 0 W/m 6,5 C 9,6 C 4,0 km/h (1 Bft)
19/11/2011 03:30 9,5 C 81 % 1013,5 hPa 0,0 mm 0,7 km/h (0 Bft) SE 135 0 min 0 W/m 6,4 C 9,5 C 0,7 km/h (0 Bft)
19/11/2011 03:35 9,4 C 81 % 1013,4 hPa 0,0 mm 1,1 km/h (1 Bft) E-SE 112 0 min 0 W/m 6,3 C 9,4 C 4,0 km/h (1 Bft)
19/11/2011 03:40 9,3 C 80 % 1013,4 hPa 0,0 mm 2,5 km/h (1 Bft) SE 135 0 min 0 W/m 6,0 C 9,3 C 4,3 km/h (1 Bft)
19/11/2011 03:45 9,1 C 81 % 1013,4 hPa 0,0 mm 2,5 km/h (1 Bft) N 360 0 min 0 W/m 6,0 C 9,1 C 2,5 km/h (1 Bft)
19/11/2011 03:50 9,1 C 81 % 1013,4 hPa 0,0 mm 0,4 km/h (0 Bft) E-SE 112 0 min 0 W/m 6,0 C 9,1 C 4,3 km/h (1 Bft)
19/11/2011 03:55 9,1 C 82 % 1013,4 hPa 0,0 mm 3,2 km/h (1 Bft) SE 135 0 min 0 W/m 6,2 C 9,1 C 4,3 km/h (1 Bft)
19/11/2011 04:00 9,1 C 82 % 1013,4 hPa 0,0 mm 2,2 km/h (1 Bft) E-SE 112 0 min 0 W/m 6,2 C 9,1 C 4,7 km/h (1 Bft)
19/11/2011 04:05 9,1 C 82 % 1013,3 hPa 0,0 mm 3,6 km/h (1 Bft) SE 135 0 min 0 W/m 6,2 C 9,1 C 6,5 km/h (2 Bft)
19/11/2011 04:10 9,1 C 82 % 1013,4 hPa 0,0 mm 4,3 km/h (1 Bft) S-SE 157 0 min 0 W/m 6,2 C 9,1 C 8,6 km/h (2 Bft)
19/11/2011 04:15 9,1 C 82 % 1013,3 hPa 0,0 mm 3,6 km/h (1 Bft) SE 135 0 min 0 W/m 6,2 C 9,1 C 8,3 km/h (2 Bft)
19/11/2011 04:20 9,3 C 82 % 1013,3 hPa 0,0 mm 2,5 km/h (1 Bft) E-SE 112 0 min 0 W/m 6,4 C 9,3 C 3,6 km/h (1 Bft)
19/11/2011 04:25 9,3 C 82 % 1013,3 hPa 0,0 mm 4,3 km/h (1 Bft) S-SE 157 0 min 0 W/m 6,4 C 9,3 C 9,0 km/h (2 Bft)
19/11/2011 04:30 9,4 C 82 % 1013,2 hPa 0,0 mm 5,8 km/h (2 Bft) E-SE 112 0 min 0 W/m 6,5 C 8,8 C 13,7 km/h (3 Bft)
19/11/2011 04:35 9,4 C 82 % 1013,1 hPa 0,0 mm 2,9 km/h (1 Bft) SE 135 0 min 0 W/m 6,5 C 9,4 C 6,8 km/h (2 Bft)
19/11/2011 04:40 9,4 C 82 % 1013,1 hPa 0,0 mm 7,2 km/h (2 Bft) SE 135 0 min 0 W/m 6,5 C 8,5 C 7,6 km/h (2 Bft)
19/11/2011 04:45 9,5 C 82 % 1013,0 hPa 0,0 mm 0,7 km/h (0 Bft) S-SE 157 0 min 0 W/m 6,6 C 9,5 C 4,3 km/h (1 Bft)
19/11/2011 04:50 9,4 C 82 % 1013,0 hPa 0,0 mm 3,6 km/h (1 Bft) E-SE 112 0 min 0 W/m 6,5 C 9,4 C 7,9 km/h (2 Bft)
19/11/2011 04:55 9,4 C 82 % 1013,0 hPa 0,0 mm 0,4 km/h (0 Bft) E-SE 112 0 min 0 W/m 6,5 C 9,4 C 3,2 km/h (1 Bft)
19/11/2011 05:00 9,4 C 82 % 1013,0 hPa 0,0 mm 4,7 km/h (1 Bft) S-SE 157 0 min 0 W/m 6,5 C 9,2 C 4,7 km/h (1 Bft)
19/11/2011 05:05 9,4 C 82 % 1013,0 hPa 0,0 mm 3,2 km/h (1 Bft) SE 135 0 min 0 W/m 6,5 C 9,4 C 7,2 km/h (2 Bft)
19/11/2011 05:10 9,5 C 83 % 1013,0 hPa 0,0 mm 4,3 km/h (1 Bft) SE 135 0 min 0 W/m 6,8 C 9,5 C 7,2 km/h (2 Bft)
19/11/2011 05:15 9,6 C 83 % 1013,1 hPa 0,0 mm 4,7 km/h (1 Bft) SE 135 0 min 0 W/m 6,9 C 9,4 C 9,4 km/h (2 Bft)
19/11/2011 05:20 9,7 C 82 % 1013,0 hPa 0,0 mm 6,1 km/h (2 Bft) SE 135 0 min 0 W/m 6,8 C 9,1 C 11,9 km/h (2 Bft)
19/11/2011 05:25 9,8 C 83 % 1013,0 hPa 0,0 mm 3,6 km/h (1 Bft) S-SE 157 0 min 0 W/m 7,1 C 9,8 C 3,6 km/h (1 Bft)
19/11/2011 05:30 9,8 C 83 % 1013,0 hPa 0,0 mm 3,6 km/h (1 Bft) N 360 0 min 0 W/m 7,1 C 9,8 C 3,6 km/h (1 Bft)
19/11/2011 05:35 9,8 C 83 % 1013,0 hPa 0,0 mm 4,0 km/h (1 Bft) SE 135 0 min 0 W/m 7,1 C 9,8 C 7,6 km/h (2 Bft)
19/11/2011 05:40 9,8 C 83 % 1012,9 hPa 0,0 mm 4,0 km/h (1 Bft) E-SE 112 0 min 0 W/m 7,1 C 9,8 C 6,8 km/h (2 Bft)
19/11/2011 05:45 9,8 C 83 % 1013,0 hPa 0,0 mm 4,3 km/h (1 Bft) E-SE 112 0 min 0 W/m 7,1 C 9,8 C 6,5 km/h (2 Bft)
19/11/2011 05:50 9,8 C 83 % 1013,0 hPa 0,0 mm 4,7 km/h (1 Bft) S 180 0 min 0 W/m 7,1 C 9,6 C 6,5 km/h (2 Bft)
19/11/2011 05:55 9,8 C 83 % 1013,1 hPa 0,0 mm 3,2 km/h (1 Bft) SE 135 0 min 0 W/m 7,1 C 9,8 C 6,5 km/h (2 Bft)
19/11/2011 06:00 9,8 C 83 % 1013,0 hPa 0,0 mm 4,3 km/h (1 Bft) E-SE 112 0 min 0 W/m 7,1 C 9,8 C 4,3 km/h (1 Bft)
19/11/2011 06:05 9,8 C 83 % 1013,0 hPa 0,0 mm 3,2 km/h (1 Bft) E-SE 112 0 min 0 W/m 7,1 C 9,8 C 4,0 km/h (1 Bft)
19/11/2011 06:10 9,8 C 83 % 1012,9 hPa 0,0 mm 5,8 km/h (2 Bft) E-SE 112 0 min 0 W/m 7,1 C 9,3 C 7,9 km/h (2 Bft)
19/11/2011 06:15 9,8 C 83 % 1013,0 hPa 0,0 mm 0,0 km/h (0 Bft) SE 135 0 min 0 W/m 7,1 C 9,8 C 0,0 km/h (0 Bft)
19/11/2011 06:20 9,7 C 82 % 1012,9 hPa 0,0 mm 0,0 km/h (0 Bft) S-SO 202 0 min 0 W/m 6,8 C 9,7 C 0,0 km/h (0 Bft)
19/11/2011 06:25 9,5 C 82 % 1013,0 hPa 0,0 mm 0,0 km/h (0 Bft) S-SE 157 0 min 0 W/m 6,6 C 9,5 C 0,0 km/h (0 Bft)
19/11/2011 06:30 9,4 C 82 % 1013,1 hPa 0,0 mm 1,8 km/h (1 Bft) SE 135 0 min 0 W/m 6,5 C 9,4 C 3,6 km/h (1 Bft)
19/11/2011 06:35 9,4 C 83 % 1013,1 hPa 0,0 mm 1,8 km/h (1 Bft) SE 135 0 min 0 W/m 6,7 C 9,4 C 4,0 km/h (1 Bft)
19/11/2011 06:40 9,4 C 83 % 1013,0 hPa 0,0 mm 4,0 km/h (1 Bft) SE 135 0 min 0 W/m 6,7 C 9,4 C 6,8 km/h (2 Bft)
19/11/2011 06:45 9,5 C 84 % 1013,0 hPa 0,0 mm 1,8 km/h (1 Bft) SE 135 0 min 0 W/m 6,9 C 9,5 C 4,3 km/h (1 Bft)
19/11/2011 06:50 9,5 C 84 % 1013,0 hPa 0,0 mm 3,6 km/h (1 Bft) SE 135 0 min 0 W/m 6,9 C 9,5 C 5,0 km/h (1 Bft)
19/11/2011 06:55 9,6 C 84 % 1012,9 hPa 0,0 mm 2,9 km/h (1 Bft) SE 135 0 min 0 W/m 7,0 C 9,6 C 4,3 km/h (1 Bft)
19/11/2011 07:00 9,6 C 84 % 1012,9 hPa 0,0 mm 5,0 km/h (1 Bft) SE 135 0 min 0 W/m 7,0 C 9,3 C 6,5 km/h (2 Bft)
19/11/2011 07:05 9,7 C 83 % 1012,9 hPa 0,0 mm 4,0 km/h (1 Bft) E 90 0 min 0 W/m 7,0 C 9,7 C 6,1 km/h (2 Bft)
19/11/2011 07:10 9,8 C 83 % 1012,9 hPa 0,0 mm 5,0 km/h (1 Bft) E-SE 112 0 min 0 W/m 7,1 C 9,5 C 8,6 km/h (2 Bft)
19/11/2011 07:15 9,8 C 83 % 1012,9 hPa 0,0 mm 4,3 km/h (1 Bft) S-SO 202 0 min 0 W/m 7,1 C 9,8 C 6,8 km/h (2 Bft)
19/11/2011 07:20 9,8 C 83 % 1013,0 hPa 0,0 mm 1,8 km/h (1 Bft) S-SE 157 0 min 0 W/m 7,1 C 9,8 C 4,0 km/h (1 Bft)
19/11/2011 07:25 9,8 C 83 % 1013,1 hPa 0,0 mm 3,6 km/h (1 Bft) SE 135 0 min 0 W/m 7,1 C 9,8 C 9,4 km/h (2 Bft)
19/11/2011 07:30 9,8 C 83 % 1013,0 hPa 0,0 mm 2,5 km/h (1 Bft) S 180 0 min 0 W/m 7,1 C 9,8 C 4,0 km/h (1 Bft)
19/11/2011 07:35 9,7 C 83 % 1013,1 hPa 0,0 mm 1,4 km/h (1 Bft) SE 135 0 min 0 W/m 7,0 C 9,7 C 4,3 km/h (1 Bft)
19/11/2011 07:40 9,6 C 83 % 1013,1 hPa 0,0 mm 3,6 km/h (1 Bft) SE 135 0 min 0 W/m 6,9 C 9,6 C 8,6 km/h (2 Bft)
19/11/2011 07:45 9,6 C 83 % 1013,1 hPa 0,0 mm 1,1 km/h (1 Bft) SE 135 0 min 0 W/m 6,9 C 9,6 C 1,1 km/h (1 Bft)
19/11/2011 07:50 9,6 C 83 % 1013,1 hPa 0,0 mm 1,4 km/h (1 Bft) SE 135 0 min 0 W/m 6,9 C 9,6 C 3,6 km/h (1 Bft)
19/11/2011 07:55 9,5 C 84 % 1013,1 hPa 0,0 mm 2,5 km/h (1 Bft) SE 135 0 min 0 W/m 6,9 C 9,5 C 4,3 km/h (1 Bft)
19/11/2011 08:00 9,6 C 84 % 1013,0 hPa 0,0 mm 1,4 km/h (1 Bft) E-SE 112 0 min 0 W/m 7,0 C 9,6 C 4,3 km/h (1 Bft)
19/11/2011 08:05 9,7 C 84 % 1013,0 hPa 0,0 mm 4,0 km/h (1 Bft) E-SE 112 0 min 0 W/m 7,1 C 9,7 C 6,5 km/h (2 Bft)
19/11/2011 08:10 9,8 C 84 % 1013,0 hPa 0,0 mm 8,3 km/h (2 Bft) SE 135 0 min 0 W/m 7,2 C 8,7 C 15,5 km/h (3 Bft)
19/11/2011 08:15 9,8 C 84 % 1013,1 hPa 0,0 mm 6,5 km/h (2 Bft) S-SE 157 0 min 0 W/m 7,2 C 9,1 C 6,5 km/h (2 Bft)
19/11/2011 08:20 9,9 C 83 % 1013,1 hPa 0,0 mm 3,2 km/h (1 Bft) E-SE 112 0 min 0 W/m 7,2 C 9,9 C 6,1 km/h (2 Bft)
19/11/2011 08:25 9,9 C 83 % 1013,0 hPa 0,0 mm 4,3 km/h (1 Bft) E-SE 112 0 min 0 W/m 7,2 C 9,9 C 4,3 km/h (1 Bft)
19/11/2011 08:30 9,9 C 83 % 1013,1 hPa 0,0 mm 3,6 km/h (1 Bft) E-SE 112 0 min 0 W/m 7,2 C 9,9 C 7,9 km/h (2 Bft)
19/11/2011 08:35 9,8 C 83 % 1013,2 hPa 0,0 mm 0,0 km/h (0 Bft) E-SE 112 0 min 0 W/m 7,1 C 9,8 C 4,0 km/h (1 Bft)
19/11/2011 08:40 9,8 C 83 % 1013,2 hPa 0,0 mm 1,4 km/h (1 Bft) SE 135 0 min 0 W/m 7,1 C 9,8 C 2,9 km/h (1 Bft)
19/11/2011 08:45 10,0 C 84 % 1013,1 hPa 0,0 mm 4,3 km/h (1 Bft) E-SE 112 0 min 0 W/m 7,4 C 10,0 C 4,3 km/h (1 Bft)
19/11/2011 08:50 10,3 C 83 % 1013,2 hPa 0,0 mm 1,8 km/h (1 Bft) E-SE 112 0 min 0 W/m 7,5 C 10,3 C 4,0 km/h (1 Bft)
19/11/2011 08:55 10,6 C 83 % 1013,2 hPa 0,0 mm 1,1 km/h (1 Bft) SE 135 0 min 0 W/m 7,8 C 10,6 C 6,1 km/h (2 Bft)
19/11/2011 09:00 10,9 C 82 % 1013,2 hPa 0,0 mm 4,3 km/h (1 Bft) SE 135 0 min 0 W/m 7,9 C 10,9 C 8,3 km/h (2 Bft)
19/11/2011 09:05 11,3 C 81 % 1013,2 hPa 0,0 mm 1,1 km/h (1 Bft) SE 135 0 min 0 W/m 8,2 C 11,3 C 1,1 km/h (1 Bft)
19/11/2011 09:10 11,6 C 81 % 1013,3 hPa 0,0 mm 3,2 km/h (1 Bft) S-SE 157 0 min 0 W/m 8,5 C 11,6 C 6,1 km/h (2 Bft)
19/11/2011 09:15 12,0 C 80 % 1013,2 hPa 0,0 mm 0,4 km/h (0 Bft) SE 135 0 min 0 W/m 8,7 C 12,0 C 0,4 km/h (0 Bft)
19/11/2011 09:20 12,4 C 79 % 1013,3 hPa 0,0 mm 2,2 km/h (1 Bft) S-SE 157 0 min 0 W/m 8,9 C 12,4 C 4,0 km/h (1 Bft)
19/11/2011 09:25 12,8 C 78 % 1013,3 hPa 0,0 mm 2,2 km/h (1 Bft) SE 135 0 min 0 W/m 9,1 C 12,8 C 10,1 km/h (2 Bft)
19/11/2011 09:30 13,0 C 77 % 1013,3 hPa 0,0 mm 2,5 km/h (1 Bft) S-SE 157 0 min 0 W/m 9,1 C 13,0 C 3,2 km/h (1 Bft)
19/11/2011 09:35 13,4 C 77 % 1013,4 hPa 0,0 mm 2,2 km/h (1 Bft) S-SE 157 0 min 0 W/m 9,5 C 13,4 C 4,0 km/h (1 Bft)
19/11/2011 09:40 13,7 C 76 % 1013,4 hPa 0,0 mm 1,8 km/h (1 Bft) SE 135 0 min 0 W/m 9,5 C 13,7 C 4,0 km/h (1 Bft)
19/11/2011 09:45 14,0 C 76 % 1013,5 hPa 0,0 mm 2,9 km/h (1 Bft) SE 135 0 min 0 W/m 9,8 C 14,0 C 4,3 km/h (1 Bft)
19/11/2011 09:50 14,4 C 75 % 1013,5 hPa 0,0 mm 0,4 km/h (0 Bft) SE 135 0 min 0 W/m 10,0 C 14,4 C 0,4 km/h (0 Bft)
19/11/2011 09:55 14,7 C 73 % 1013,5 hPa 0,0 mm 1,8 km/h (1 Bft) E 90 0 min 0 W/m 9,9 C 14,7 C 4,3 km/h (1 Bft)
19/11/2011 10:00 14,9 C 74 % 1013,5 hPa 0,0 mm 0,7 km/h (0 Bft) SE 135 0 min 0 W/m 10,3 C 14,9 C 3,6 km/h (1 Bft)
19/11/2011 10:05 15,1 C 72 % 1013,6 hPa 0,0 mm 4,7 km/h (1 Bft) S 180 0 min 0 W/m 10,1 C 15,1 C 10,8 km/h (2 Bft)
19/11/2011 10:10 15,3 C 71 % 1013,7 hPa 0,0 mm 5,0 km/h (1 Bft) S-SE 157 0 min 0 W/m 10,1 C 15,3 C 7,6 km/h (2 Bft)
19/11/2011 10:15 15,5 C 70 % 1013,8 hPa 0,0 mm 4,3 km/h (1 Bft) S-SO 202 0 min 0 W/m 10,1 C 15,5 C 10,4 km/h (2 Bft)
19/11/2011 10:20 15,6 C 69 % 1013,8 hPa 0,0 mm 3,2 km/h (1 Bft) S-SE 157 0 min 0 W/m 9,9 C 15,6 C 6,8 km/h (2 Bft)
19/11/2011 10:25 15,8 C 69 % 1013,7 hPa 0,0 mm 6,5 km/h (2 Bft) SE 135 0 min 0 W/m 10,1 C 15,8 C 10,4 km/h (2 Bft)
19/11/2011 10:30 16,0 C 69 % 1013,8 hPa 0,0 mm 1,1 km/h (1 Bft) SE 135 0 min 0 W/m 10,3 C 16,0 C 4,3 km/h (1 Bft)
19/11/2011 10:35 16,3 C 68 % 1013,8 hPa 0,0 mm 4,3 km/h (1 Bft) SE 135 0 min 0 W/m 10,4 C 16,3 C 9,0 km/h (2 Bft)
19/11/2011 10:40 16,4 C 67 % 1013,9 hPa 0,0 mm 4,7 km/h (1 Bft) SE 135 0 min 0 W/m 10,3 C 16,4 C 4,7 km/h (1 Bft)
19/11/2011 10:45 16,4 C 66 % 1013,8 hPa 0,0 mm 4,3 km/h (1 Bft) S 180 0 min 0 W/m 10,0 C 16,4 C 7,6 km/h (2 Bft)
19/11/2011 10:50 16,6 C 67 % 1013,8 hPa 0,0 mm 3,6 km/h (1 Bft) S-SE 157 0 min 0 W/m 10,4 C 16,6 C 6,8 km/h (2 Bft)
19/11/2011 10:55 16,8 C 67 % 1013,9 hPa 0,0 mm 7,2 km/h (2 Bft) S-SO 202 0 min 0 W/m 10,6 C 16,8 C 10,8 km/h (2 Bft)
19/11/2011 11:00 16,9 C 67 % 1014,0 hPa 0,0 mm 8,3 km/h (2 Bft) S-SE 157 0 min 0 W/m 10,7 C 16,9 C 10,1 km/h (2 Bft)
19/11/2011 11:05 17,1 C 66 % 1013,9 hPa 0,0 mm 9,4 km/h (2 Bft) S-SE 157 0 min 0 W/m 10,7 C 17,1 C 16,2 km/h (3 Bft)
19/11/2011 11:10 17,1 C 65 % 1014,0 hPa 0,0 mm 4,3 km/h (1 Bft) SE 135 0 min 0 W/m 10,5 C 17,1 C 6,8 km/h (2 Bft)
19/11/2011 11:15 17,3 C 65 % 1014,0 hPa 0,0 mm 9,0 km/h (2 Bft) SE 135 0 min 0 W/m 10,7 C 17,3 C 12,6 km/h (3 Bft)
19/11/2011 11:20 17,4 C 65 % 1014,0 hPa 0,0 mm 5,8 km/h (2 Bft) SE 135 0 min 0 W/m 10,8 C 17,4 C 10,8 km/h (2 Bft)
19/11/2011 11:25 17,6 C 65 % 1014,0 hPa 0,0 mm 2,9 km/h (1 Bft) S-SO 202 0 min 0 W/m 10,9 C 17,6 C 5,8 km/h (2 Bft)
19/11/2011 11:30 17,8 C 64 % 1013,9 hPa 0,0 mm 5,8 km/h (2 Bft) S 180 0 min 0 W/m 10,9 C 17,8 C 9,7 km/h (2 Bft)
19/11/2011 11:35 17,9 C 63 % 1013,9 hPa 0,0 mm 2,2 km/h (1 Bft) S-SE 157 0 min 0 W/m 10,8 C 17,9 C 3,2 km/h (1 Bft)
19/11/2011 11:40 18,1 C 64 % 1013,9 hPa 0,0 mm 2,2 km/h (1 Bft) E-SE 112 0 min 0 W/m 11,2 C 18,1 C 7,2 km/h (2 Bft)
19/11/2011 11:45 18,3 C 62 % 1013,7 hPa 0,0 mm 6,5 km/h (2 Bft) S-SO 202 0 min 0 W/m 10,9 C 18,3 C 10,4 km/h (2 Bft)
19/11/2011 11:50 18,4 C 62 % 1013,8 hPa 0,0 mm 0,4 km/h (0 Bft) SE 135 0 min 0 W/m 11,0 C 18,4 C 1,4 km/h (1 Bft)
19/11/2011 11:55 18,5 C 61 % 1013,7 hPa 0,0 mm 2,9 km/h (1 Bft) S-SE 157 0 min 0 W/m 10,8 C 18,5 C 4,7 km/h (1 Bft)
19/11/2011 12:00 18,6 C 61 % 1013,6 hPa 0,0 mm 4,7 km/h (1 Bft) E-SE 112 0 min 0 W/m 10,9 C 18,6 C 4,7 km/h (1 Bft)
19/11/2011 12:05 18,8 C 60 % 1013,7 hPa 0,0 mm 3,6 km/h (1 Bft) SO 225 0 min 0 W/m 10,9 C 18,8 C 7,6 km/h (2 Bft)
19/11/2011 12:10 18,9 C 60 % 1013,7 hPa 0,0 mm 3,2 km/h (1 Bft) S 180 0 min 0 W/m 11,0 C 18,9 C 7,2 km/h (2 Bft)
19/11/2011 12:15 19,2 C 60 % 1013,6 hPa 0,0 mm 3,2 km/h (1 Bft) SE 135 0 min 0 W/m 11,2 C 19,2 C 4,3 km/h (1 Bft)
19/11/2011 12:20 19,2 C 58 % 1013,7 hPa 0,0 mm 5,0 km/h (1 Bft) S-SE 157 0 min 0 W/m 10,7 C 19,2 C 5,0 km/h (1 Bft)
19/11/2011 12:25 19,1 C 59 % 1013,7 hPa 0,0 mm 3,2 km/h (1 Bft) SE 135 0 min 0 W/m 10,9 C 19,1 C 4,0 km/h (1 Bft)
19/11/2011 12:30 19,1 C 57 % 1013,5 hPa 0,0 mm 9,4 km/h (2 Bft) S-SO 202 0 min 0 W/m 10,4 C 19,1 C 11,2 km/h (2 Bft)
19/11/2011 12:35 19,0 C 59 % 1013,6 hPa 0,0 mm 5,8 km/h (2 Bft) S 180 0 min 0 W/m 10,8 C 19,0 C 9,7 km/h (2 Bft)
19/11/2011 12:40 18,9 C 59 % 1013,7 hPa 0,0 mm 7,6 km/h (2 Bft) SE 135 0 min 0 W/m 10,7 C 18,9 C 11,5 km/h (2 Bft)
19/11/2011 12:45 18,9 C 59 % 1013,7 hPa 0,0 mm 6,8 km/h (2 Bft) S-SE 157 0 min 0 W/m 10,7 C 18,9 C 12,2 km/h (2 Bft)
19/11/2011 12:50 18,9 C 59 % 1013,7 hPa 0,0 mm 4,0 km/h (1 Bft) S-SE 157 0 min 0 W/m 10,7 C 18,9 C 9,4 km/h (2 Bft)
19/11/2011 12:55 18,9 C 60 % 1013,5 hPa 0,0 mm 2,2 km/h (1 Bft) O-SO 247 0 min 0 W/m 11,0 C 18,9 C 3,6 km/h (1 Bft)
19/11/2011 13:00 18,9 C 59 % 1013,6 hPa 0,0 mm 2,5 km/h (1 Bft) S-SO 202 0 min 0 W/m 10,7 C 18,9 C 4,3 km/h (1 Bft)
19/11/2011 13:05 19,1 C 60 % 1013,7 hPa 0,0 mm 4,7 km/h (1 Bft) SE 135 0 min 0 W/m 11,1 C 19,1 C 8,3 km/h (2 Bft)
19/11/2011 13:10 19,1 C 58 % 1013,5 hPa 0,0 mm 7,6 km/h (2 Bft) S-SE 157 0 min 0 W/m 10,6 C 19,1 C 11,9 km/h (2 Bft)
19/11/2011 13:15 19,1 C 58 % 1013,3 hPa 0,0 mm 6,5 km/h (2 Bft) S-SE 157 0 min 0 W/m 10,6 C 19,1 C 15,5 km/h (3 Bft)
19/11/2011 13:20 19,1 C 58 % 1013,2 hPa 0,0 mm 3,6 km/h (1 Bft) S-SO 202 0 min 0 W/m 10,6 C 19,1 C 7,6 km/h (2 Bft)
19/11/2011 13:25 19,2 C 58 % 1013,2 hPa 0,0 mm 6,5 km/h (2 Bft) S-SO 202 0 min 0 W/m 10,7 C 19,2 C 7,6 km/h (2 Bft)
19/11/2011 13:30 19,3 C 58 % 1013,2 hPa 0,0 mm 3,6 km/h (1 Bft) S-SO 202 0 min 0 W/m 10,8 C 19,3 C 3,6 km/h (1 Bft)
19/11/2011 13:35 19,3 C 57 % 1013,3 hPa 0,0 mm 4,3 km/h (1 Bft) S-SE 157 0 min 0 W/m 10,6 C 19,3 C 9,0 km/h (2 Bft)
19/11/2011 13:40 19,2 C 57 % 1013,2 hPa 0,0 mm 5,4 km/h (2 Bft) S-SO 202 0 min 0 W/m 10,5 C 19,2 C 5,4 km/h (2 Bft)
19/11/2011 13:45 19,1 C 57 % 1013,3 hPa 0,0 mm 4,0 km/h (1 Bft) S 180 0 min 0 W/m 10,4 C 19,1 C 7,6 km/h (2 Bft)
19/11/2011 13:50 19,1 C 57 % 1013,3 hPa 0,0 mm 4,7 km/h (1 Bft) S-SE 157 0 min 0 W/m 10,4 C 19,1 C 7,9 km/h (2 Bft)
19/11/2011 13:55 19,1 C 57 % 1013,2 hPa 0,0 mm 5,8 km/h (2 Bft) S-SO 202 0 min 0 W/m 10,4 C 19,1 C 9,0 km/h (2 Bft)
19/11/2011 14:00 19,1 C 57 % 1013,1 hPa 0,0 mm 7,9 km/h (2 Bft) S 180 0 min 0 W/m 10,4 C 19,1 C 9,7 km/h (2 Bft)
19/11/2011 14:05 19,1 C 57 % 1013,1 hPa 0,0 mm 3,2 km/h (1 Bft) SO 225 0 min 0 W/m 10,4 C 19,1 C 3,2 km/h (1 Bft)
19/11/2011 14:10 19,1 C 56 % 1012,9 hPa 0,0 mm 4,7 km/h (1 Bft) SO 225 0 min 0 W/m 10,1 C 19,1 C 7,9 km/h (2 Bft)
19/11/2011 14:15 19,1 C 58 % 1012,8 hPa 0,0 mm 1,8 km/h (1 Bft) SE 135 0 min 0 W/m 10,6 C 19,1 C 4,0 km/h (1 Bft)
19/11/2011 14:20 19,0 C 57 % 1012,7 hPa 0,0 mm 7,2 km/h (2 Bft) S 180 0 min 0 W/m 10,3 C 19,0 C 10,1 km/h (2 Bft)
19/11/2011 14:25 18,9 C 57 % 1012,8 hPa 0,0 mm 0,4 km/h (0 Bft) SE 135 0 min 0 W/m 10,2 C 18,9 C 3,2 km/h (1 Bft)
19/11/2011 14:30 18,9 C 57 % 1012,6 hPa 0,0 mm 5,8 km/h (2 Bft) S-SE 157 0 min 0 W/m 10,2 C 18,9 C 8,6 km/h (2 Bft)
19/11/2011 14:35 18,9 C 57 % 1012,6 hPa 0,0 mm 1,4 km/h (1 Bft) S-SO 202 0 min 0 W/m 10,2 C 18,9 C 6,5 km/h (2 Bft)
19/11/2011 14:40 18,9 C 57 % 1012,6 hPa 0,0 mm 1,8 km/h (1 Bft) SO 225 0 min 0 W/m 10,2 C 18,9 C 3,6 km/h (1 Bft)
19/11/2011 14:45 18,9 C 57 % 1012,5 hPa 0,0 mm 2,9 km/h (1 Bft) S-SO 202 0 min 0 W/m 10,2 C 18,9 C 2,9 km/h (1 Bft)
19/11/2011 14:50 18,9 C 57 % 1012,6 hPa 0,0 mm 2,5 km/h (1 Bft) S-SO 202 0 min 0 W/m 10,2 C 18,9 C 2,5 km/h (1 Bft)
19/11/2011 14:55 18,8 C 57 % 1012,5 hPa 0,0 mm 0,7 km/h (0 Bft) S-SE 157 0 min 0 W/m 10,1 C 18,8 C 4,0 km/h (1 Bft)
19/11/2011 15:00 18,8 C 58 % 1012,4 hPa 0,0 mm 1,4 km/h (1 Bft) S-SE 157 0 min 0 W/m 10,4 C 18,8 C 3,6 km/h (1 Bft)
19/11/2011 15:05 18,8 C 57 % 1012,4 hPa 0,0 mm 3,2 km/h (1 Bft) SE 135 0 min 0 W/m 10,1 C 18,8 C 4,7 km/h (1 Bft)
19/11/2011 15:10 18,6 C 57 % 1012,4 hPa 0,0 mm 0,0 km/h (0 Bft) S-SE 157 0 min 0 W/m 9,9 C 18,6 C 0,0 km/h (0 Bft)
19/11/2011 15:15 18,5 C 57 % 1012,4 hPa 0,0 mm 4,3 km/h (1 Bft) SE 135 0 min 0 W/m 9,8 C 18,5 C 8,3 km/h (2 Bft)
19/11/2011 15:20 18,4 C 57 % 1012,5 hPa 0,0 mm 4,0 km/h (1 Bft) S-SE 157 0 min 0 W/m 9,7 C 18,4 C 7,9 km/h (2 Bft)
19/11/2011 15:25 18,4 C 56 % 1012,5 hPa 0,0 mm 3,6 km/h (1 Bft) S-SE 157 0 min 0 W/m 9,5 C 18,4 C 4,3 km/h (1 Bft)
19/11/2011 15:30 18,3 C 57 % 1012,6 hPa 0,0 mm 1,8 km/h (1 Bft) SE 135 0 min 0 W/m 9,6 C 18,3 C 6,5 km/h (2 Bft)
19/11/2011 15:35 18,2 C 57 % 1012,6 hPa 0,0 mm 2,5 km/h (1 Bft) SE 135 0 min 0 W/m 9,5 C 18,2 C 4,3 km/h (1 Bft)
19/11/2011 15:40 18,1 C 57 % 1012,5 hPa 0,0 mm 1,1 km/h (1 Bft) E 90 0 min 0 W/m 9,4 C 18,1 C 3,2 km/h (1 Bft)
19/11/2011 15:45 18,1 C 58 % 1012,6 hPa 0,0 mm 1,4 km/h (1 Bft) SE 135 0 min 0 W/m 9,7 C 18,1 C 3,6 km/h (1 Bft)
19/11/2011 15:50 18,0 C 58 % 1012,7 hPa 0,0 mm 1,1 km/h (1 Bft) SE 135 0 min 0 W/m 9,6 C 18,0 C 3,6 km/h (1 Bft)
19/11/2011 15:55 17,8 C 57 % 1012,7 hPa 0,0 mm 2,2 km/h (1 Bft) SE 135 0 min 0 W/m 9,2 C 17,8 C 4,3 km/h (1 Bft)
19/11/2011 16:00 17,8 C 57 % 1012,7 hPa 0,0 mm 2,2 km/h (1 Bft) SE 135 0 min 0 W/m 9,2 C 17,8 C 4,3 km/h (1 Bft)
19/11/2011 16:05 17,6 C 57 % 1012,7 hPa 0,0 mm 0,0 km/h (0 Bft) E-SE 112 0 min 0 W/m 9,0 C 17,6 C 3,2 km/h (1 Bft)
19/11/2011 16:10 17,5 C 58 % 1012,8 hPa 0,0 mm 0,7 km/h (0 Bft) E-SE 112 0 min 0 W/m 9,1 C 17,5 C 4,3 km/h (1 Bft)
19/11/2011 16:15 17,4 C 58 % 1012,8 hPa 0,0 mm 0,0 km/h (0 Bft) E-SE 112 0 min 0 W/m 9,1 C 17,4 C 0,0 km/h (0 Bft)
19/11/2011 16:20 17,2 C 58 % 1012,8 hPa 0,0 mm 2,5 km/h (1 Bft) SE 135 0 min 0 W/m 8,9 C 17,2 C 4,3 km/h (1 Bft)
19/11/2011 16:25 17,1 C 58 % 1012,8 hPa 0,0 mm 0,4 km/h (0 Bft) SE 135 0 min 0 W/m 8,8 C 17,1 C 4,0 km/h (1 Bft)
19/11/2011 16:30 16,9 C 58 % 1012,9 hPa 0,0 mm 0,0 km/h (0 Bft) SE 135 0 min 0 W/m 8,6 C 16,9 C 0,0 km/h (0 Bft)
19/11/2011 16:35 16,8 C 58 % 1012,9 hPa 0,0 mm 0,0 km/h (0 Bft) SE 135 0 min 0 W/m 8,5 C 16,8 C 0,0 km/h (0 Bft)
19/11/2011 16:40 16,6 C 58 % 1013,0 hPa 0,0 mm 1,8 km/h (1 Bft) SE 135 0 min 0 W/m 8,3 C 16,6 C 4,3 km/h (1 Bft)
19/11/2011 16:45 16,4 C 59 % 1012,9 hPa 0,0 mm 1,1 km/h (1 Bft) SE 135 0 min 0 W/m 8,4 C 16,4 C 1,1 km/h (1 Bft)
19/11/2011 16:50 16,2 C 59 % 1012,9 hPa 0,0 mm 0,0 km/h (0 Bft) SE 135 0 min 0 W/m 8,2 C 16,2 C 3,2 km/h (1 Bft)
19/11/2011 16:55 16,0 C 59 % 1012,9 hPa 0,0 mm 0,0 km/h (0 Bft) SE 135 0 min 0 W/m 8,0 C 16,0 C 0,0 km/h (0 Bft)
19/11/2011 17:00 15,8 C 59 % 1012,9 hPa 0,0 mm 0,0 km/h (0 Bft) SE 135 0 min 0 W/m 7,8 C 15,8 C 0,0 km/h (0 Bft)
19/11/2011 17:05 15,5 C 60 % 1012,9 hPa 0,0 mm 0,0 km/h (0 Bft) SE 135 0 min 0 W/m 7,8 C 15,5 C 0,0 km/h (0 Bft)
19/11/2011 17:10 15,3 C 60 % 1012,8 hPa 0,0 mm 0,4 km/h (0 Bft) E-SE 112 0 min 0 W/m 7,6 C 15,3 C 3,6 km/h (1 Bft)
19/11/2011 17:15 15,1 C 60 % 1012,8 hPa 0,0 mm 0,0 km/h (0 Bft) E-SE 112 0 min 0 W/m 7,4 C 15,1 C 0,0 km/h (0 Bft)
19/11/2011 17:20 14,8 C 61 % 1012,8 hPa 0,0 mm 0,0 km/h (0 Bft) E-SE 112 0 min 0 W/m 7,4 C 14,8 C 0,0 km/h (0 Bft)
19/11/2011 17:25 14,5 C 61 % 1012,8 hPa 0,0 mm 0,0 km/h (0 Bft) E-SE 112 0 min 0 W/m 7,1 C 14,5 C 0,0 km/h (0 Bft)
19/11/2011 17:30 14,3 C 62 % 1012,8 hPa 0,0 mm 0,0 km/h (0 Bft) E-SE 112 0 min 0 W/m 7,1 C 14,3 C 0,0 km/h (0 Bft)
19/11/2011 17:35 13,9 C 63 % 1012,8 hPa 0,0 mm 0,0 km/h (0 Bft) E-SE 112 0 min 0 W/m 7,0 C 13,9 C 0,0 km/h (0 Bft)
19/11/2011 17:40 13,6 C 64 % 1012,8 hPa 0,0 mm 0,0 km/h (0 Bft) E-SE 112 0 min 0 W/m 6,9 C 13,6 C 0,0 km/h (0 Bft)
19/11/2011 17:45 13,4 C 64 % 1012,9 hPa 0,0 mm 0,0 km/h (0 Bft) E-SE 112 0 min 0 W/m 6,7 C 13,4 C 0,0 km/h (0 Bft)
19/11/2011 17:50 13,1 C 65 % 1012,9 hPa 0,0 mm 0,0 km/h (0 Bft) E-SE 112 0 min 0 W/m 6,7 C 13,1 C 0,0 km/h (0 Bft)
19/11/2011 17:55 12,9 C 65 % 1012,9 hPa 0,0 mm 0,0 km/h (0 Bft) E-SE 112 0 min 0 W/m 6,5 C 12,9 C 0,0 km/h (0 Bft)
19/11/2011 18:00 12,7 C 66 % 1013,0 hPa 0,0 mm 0,0 km/h (0 Bft) E-SE 112 0 min 0 W/m 6,5 C 12,7 C 0,0 km/h (0 Bft)
19/11/2011 18:05 12,5 C 66 % 1013,0 hPa 0,0 mm 0,0 km/h (0 Bft) E-SE 112 0 min 0 W/m 6,3 C 12,5 C 0,0 km/h (0 Bft)
19/11/2011 18:10 12,3 C 67 % 1013,1 hPa 0,0 mm 0,0 km/h (0 Bft) E-SE 112 0 min 0 W/m 6,4 C 12,3 C 0,0 km/h (0 Bft)
19/11/2011 18:15 12,1 C 68 % 1013,1 hPa 0,0 mm 0,0 km/h (0 Bft) E-SE 112 0 min 0 W/m 6,4 C 12,1 C 0,0 km/h (0 Bft)
19/11/2011 18:20 11,9 C 69 % 1013,2 hPa 0,0 mm 0,0 km/h (0 Bft) E-SE 112 0 min 0 W/m 6,4 C 11,9 C 0,0 km/h (0 Bft)
19/11/2011 18:25 11,8 C 69 % 1013,3 hPa 0,0 mm 0,0 km/h (0 Bft) E-SE 112 0 min 0 W/m 6,3 C 11,8 C 0,0 km/h (0 Bft)
19/11/2011 18:30 11,7 C 69 % 1013,3 hPa 0,0 mm 0,0 km/h (0 Bft) E-NE 67 0 min 0 W/m 6,2 C 11,7 C 3,2 km/h (1 Bft)
19/11/2011 18:35 11,5 C 70 % 1013,4 hPa 0,0 mm 0,0 km/h (0 Bft) E-NE 67 0 min 0 W/m 6,2 C 11,5 C 0,0 km/h (0 Bft)
19/11/2011 18:40 11,5 C 70 % 1013,3 hPa 0,0 mm 0,0 km/h (0 Bft) E 90 0 min 0 W/m 6,2 C 11,5 C 0,0 km/h (0 Bft)
19/11/2011 18:45 11,4 C 71 % 1013,3 hPa 0,0 mm 0,0 km/h (0 Bft) E 90 0 min 0 W/m 6,3 C 11,4 C 0,0 km/h (0 Bft)
19/11/2011 18:50 11,5 C 71 % 1013,4 hPa 0,0 mm 0,7 km/h (0 Bft) E 90 0 min 0 W/m 6,4 C 11,5 C 3,6 km/h (1 Bft)
19/11/2011 18:55 11,6 C 72 % 1013,5 hPa 0,0 mm 0,0 km/h (0 Bft) E-SE 112 0 min 0 W/m 6,7 C 11,6 C 0,0 km/h (0 Bft)
19/11/2011 19:00 11,6 C 72 % 1013,6 hPa 0,0 mm 0,0 km/h (0 Bft) E-SE 112 0 min 0 W/m 6,7 C 11,6 C 0,0 km/h (0 Bft)
19/11/2011 19:05 11,6 C 72 % 1013,7 hPa 0,0 mm 0,0 km/h (0 Bft) E 90 0 min 0 W/m 6,7 C 11,6 C 0,0 km/h (0 Bft)
19/11/2011 19:10 11,6 C 72 % 1013,7 hPa 0,0 mm 0,0 km/h (0 Bft) E 90 0 min 0 W/m 6,7 C 11,6 C 0,0 km/h (0 Bft)
19/11/2011 19:15 11,5 C 72 % 1013,8 hPa 0,0 mm 0,0 km/h (0 Bft) E-SE 112 0 min 0 W/m 6,6 C 11,5 C 0,0 km/h (0 Bft)
19/11/2011 19:20 11,4 C 73 % 1013,8 hPa 0,0 mm 0,0 km/h (0 Bft) E-SE 112 0 min 0 W/m 6,7 C 11,4 C 0,0 km/h (0 Bft)
19/11/2011 19:25 11,4 C 73 % 1013,8 hPa 0,0 mm 0,0 km/h (0 Bft) E-NE 67 0 min 0 W/m 6,7 C 11,4 C 0,0 km/h (0 Bft)
19/11/2011 19:30 11,4 C 73 % 1013,8 hPa 0,0 mm 0,0 km/h (0 Bft) SE 135 0 min 0 W/m 6,7 C 11,4 C 0,0 km/h (0 Bft)
19/11/2011 19:35 11,3 C 73 % 1013,9 hPa 0,0 mm 0,0 km/h (0 Bft) E-SE 112 0 min 0 W/m 6,6 C 11,3 C 0,0 km/h (0 Bft)
19/11/2011 19:40 11,2 C 74 % 1013,9 hPa 0,0 mm 0,0 km/h (0 Bft) E 90 0 min 0 W/m 6,7 C 11,2 C 1,4 km/h (1 Bft)
19/11/2011 19:45 11,1 C 74 % 1013,9 hPa 0,0 mm 0,4 km/h (0 Bft) SE 135 0 min 0 W/m 6,6 C 11,1 C 2,9 km/h (1 Bft)
19/11/2011 19:50 11,1 C 74 % 1013,9 hPa 0,0 mm 0,4 km/h (0 Bft) E 90 0 min 0 W/m 6,6 C 11,1 C 3,2 km/h (1 Bft)
19/11/2011 19:55 11,0 C 75 % 1013,9 hPa 0,0 mm 1,1 km/h (1 Bft) E 90 0 min 0 W/m 6,7 C 11,0 C 1,1 km/h (1 Bft)
19/11/2011 20:00 11,1 C 76 % 1014,0 hPa 0,0 mm 0,0 km/h (0 Bft) E-SE 112 0 min 0 W/m 7,0 C 11,1 C 0,0 km/h (0 Bft)
19/11/2011 20:05 11,0 C 76 % 1014,1 hPa 0,0 mm 2,5 km/h (1 Bft) E-NE 67 0 min 0 W/m 6,9 C 11,0 C 4,3 km/h (1 Bft)
19/11/2011 20:10 11,1 C 76 % 1014,1 hPa 0,0 mm 1,1 km/h (1 Bft) SE 135 0 min 0 W/m 7,0 C 11,1 C 3,6 km/h (1 Bft)
19/11/2011 20:15 10,9 C 76 % 1014,2 hPa 0,0 mm 0,0 km/h (0 Bft) E-NE 67 0 min 0 W/m 6,8 C 10,9 C 3,2 km/h (1 Bft)
19/11/2011 20:20 10,9 C 76 % 1014,2 hPa 0,0 mm 2,5 km/h (1 Bft) E-SE 112 0 min 0 W/m 6,8 C 10,9 C 4,3 km/h (1 Bft)
19/11/2011 20:25 10,9 C 76 % 1014,2 hPa 0,0 mm 1,4 km/h (1 Bft) SE 135 0 min 0 W/m 6,8 C 10,9 C 4,0 km/h (1 Bft)
19/11/2011 20:30 10,8 C 77 % 1014,3 hPa 0,0 mm 0,4 km/h (0 Bft) SE 135 0 min 0 W/m 6,9 C 10,8 C 2,9 km/h (1 Bft)
19/11/2011 20:35 10,8 C 77 % 1014,3 hPa 0,0 mm 2,5 km/h (1 Bft) E 90 0 min 0 W/m 6,9 C 10,8 C 4,0 km/h (1 Bft)
19/11/2011 20:40 10,7 C 77 % 1014,3 hPa 0,0 mm 2,2 km/h (1 Bft) SE 135 0 min 0 W/m 6,8 C 10,7 C 2,2 km/h (1 Bft)
19/11/2011 20:45 10,6 C 77 % 1014,5 hPa 0,0 mm 1,1 km/h (1 Bft) E 90 0 min 0 W/m 6,7 C 10,6 C 1,1 km/h (1 Bft)
19/11/2011 20:50 10,5 C 78 % 1014,5 hPa 0,0 mm 4,3 km/h (1 Bft) E-SE 112 0 min 0 W/m 6,8 C 10,5 C 7,9 km/h (2 Bft)
19/11/2011 20:55 10,4 C 78 % 1014,5 hPa 0,0 mm 2,2 km/h (1 Bft) SE 135 0 min 0 W/m 6,7 C 10,4 C 4,0 km/h (1 Bft)
19/11/2011 21:00 10,4 C 79 % 1014,6 hPa 0,0 mm 0,0 km/h (0 Bft) E-NE 67 0 min 0 W/m 6,9 C 10,4 C 0,0 km/h (0 Bft)
19/11/2011 21:05 10,3 C 79 % 1014,7 hPa 0,0 mm 0,4 km/h (0 Bft) E 90 0 min 0 W/m 6,8 C 10,3 C 0,4 km/h (0 Bft)
19/11/2011 21:10 10,1 C 79 % 1014,7 hPa 0,0 mm 0,0 km/h (0 Bft) E 90 0 min 0 W/m 6,6 C 10,1 C 0,0 km/h (0 Bft)
19/11/2011 21:15 10,0 C 80 % 1014,7 hPa 0,0 mm 1,1 km/h (1 Bft) E 90 0 min 0 W/m 6,7 C 10,0 C 1,1 km/h (1 Bft)
19/11/2011 21:20 9,9 C 80 % 1014,7 hPa 0,0 mm 0,0 km/h (0 Bft) E-SE 112 0 min 0 W/m 6,6 C 9,9 C 0,0 km/h (0 Bft)
19/11/2011 21:25 9,9 C 80 % 1014,7 hPa 0,0 mm 1,4 km/h (1 Bft) E 90 0 min 0 W/m 6,6 C 9,9 C 4,0 km/h (1 Bft)
19/11/2011 21:30 9,8 C 81 % 1014,7 hPa 0,0 mm 1,1 km/h (1 Bft) SE 135 0 min 0 W/m 6,7 C 9,8 C 4,0 km/h (1 Bft)
19/11/2011 21:35 9,8 C 81 % 1014,8 hPa 0,0 mm 2,2 km/h (1 Bft) E-SE 112 0 min 0 W/m 6,7 C 9,8 C 2,2 km/h (1 Bft)
19/11/2011 21:40 9,9 C 81 % 1014,8 hPa 0,0 mm 0,0 km/h (0 Bft) E 90 0 min 0 W/m 6,8 C 9,9 C 0,0 km/h (0 Bft)
19/11/2011 21:45 9,9 C 81 % 1014,9 hPa 0,0 mm 2,9 km/h (1 Bft) SE 135 0 min 0 W/m 6,8 C 9,9 C 7,6 km/h (2 Bft)
19/11/2011 21:50 10,0 C 82 % 1014,8 hPa 0,0 mm 1,4 km/h (1 Bft) E-SE 112 0 min 0 W/m 7,1 C 10,0 C 1,4 km/h (1 Bft)
19/11/2011 21:55 10,0 C 82 % 1014,8 hPa 0,0 mm 1,8 km/h (1 Bft) SE 135 0 min 0 W/m 7,1 C 10,0 C 4,0 km/h (1 Bft)
19/11/2011 22:00 10,0 C 82 % 1014,9 hPa 0,0 mm 0,0 km/h (0 Bft) E-NE 67 0 min 0 W/m 7,1 C 10,0 C 2,9 km/h (1 Bft)
19/11/2011 22:05 9,9 C 82 % 1014,9 hPa 0,0 mm 1,1 km/h (1 Bft) E-SE 112 0 min 0 W/m 7,0 C 9,9 C 4,3 km/h (1 Bft)
19/11/2011 22:10 9,8 C 82 % 1014,9 hPa 0,0 mm 0,0 km/h (0 Bft) E-SE 112 0 min 0 W/m 6,9 C 9,8 C 0,0 km/h (0 Bft)
19/11/2011 22:15 9,8 C 82 % 1014,9 hPa 0,0 mm 4,0 km/h (1 Bft) E-NE 67 0 min 0 W/m 6,9 C 9,8 C 7,9 km/h (2 Bft)
19/11/2011 22:20 9,8 C 83 % 1015,0 hPa 0,0 mm 0,7 km/h (0 Bft) E 90 0 min 0 W/m 7,1 C 9,8 C 4,0 km/h (1 Bft)
19/11/2011 22:25 9,8 C 83 % 1015,0 hPa 0,0 mm 2,9 km/h (1 Bft) E 90 0 min 0 W/m 7,1 C 9,8 C 6,8 km/h (2 Bft)
19/11/2011 22:30 9,7 C 82 % 1015,0 hPa 0,0 mm 1,4 km/h (1 Bft) SE 135 0 min 0 W/m 6,8 C 9,7 C 3,6 km/h (1 Bft)
19/11/2011 22:35 9,7 C 82 % 1015,0 hPa 0,0 mm 0,7 km/h (0 Bft) E-NE 67 0 min 0 W/m 6,8 C 9,7 C 4,0 km/h (1 Bft)
19/11/2011 22:40 9,7 C 83 % 1015,0 hPa 0,0 mm 1,1 km/h (1 Bft) E 90 0 min 0 W/m 7,0 C 9,7 C 1,1 km/h (1 Bft)
19/11/2011 22:45 9,6 C 83 % 1015,0 hPa 0,0 mm 4,0 km/h (1 Bft) E 90 0 min 0 W/m 6,9 C 9,6 C 4,3 km/h (1 Bft)
19/11/2011 22:50 9,7 C 83 % 1015,1 hPa 0,0 mm 1,1 km/h (1 Bft) E-SE 112 0 min 0 W/m 7,0 C 9,7 C 4,0 km/h (1 Bft)
19/11/2011 22:55 9,7 C 83 % 1015,1 hPa 0,0 mm 1,1 km/h (1 Bft) SE 135 0 min 0 W/m 7,0 C 9,7 C 4,0 km/h (1 Bft)
19/11/2011 23:00 9,8 C 83 % 1015,1 hPa 0,0 mm 2,5 km/h (1 Bft) E 90 0 min 0 W/m 7,1 C 9,8 C 4,0 km/h (1 Bft)
19/11/2011 23:05 9,8 C 83 % 1015,1 hPa 0,0 mm 1,4 km/h (1 Bft) SE 135 0 min 0 W/m 7,1 C 9,8 C 1,4 km/h (1 Bft)
19/11/2011 23:10 9,8 C 83 % 1015,2 hPa 0,0 mm 1,8 km/h (1 Bft) E-SE 112 0 min 0 W/m 7,1 C 9,8 C 4,3 km/h (1 Bft)
19/11/2011 23:15 9,8 C 83 % 1015,2 hPa 0,0 mm 0,0 km/h (0 Bft) SE 135 0 min 0 W/m 7,1 C 9,8 C 0,0 km/h (0 Bft)
19/11/2011 23:20 9,8 C 83 % 1015,2 hPa 0,0 mm 0,4 km/h (0 Bft) E 90 0 min 0 W/m 7,1 C 9,8 C 0,4 km/h (0 Bft)
19/11/2011 23:25 9,6 C 83 % 1015,2 hPa 0,0 mm 1,1 km/h (1 Bft) SE 135 0 min 0 W/m 6,9 C 9,6 C 3,6 km/h (1 Bft)
19/11/2011 23:30 9,6 C 83 % 1015,3 hPa 0,0 mm 0,0 km/h (0 Bft) S-SE 157 0 min 0 W/m 6,9 C 9,6 C 0,0 km/h (0 Bft)
19/11/2011 23:35 9,5 C 83 % 1015,2 hPa 0,0 mm 0,0 km/h (0 Bft) SE 135 0 min 0 W/m 6,8 C 9,5 C 0,0 km/h (0 Bft)
_ Min-Heure 04:15 15:25 15:15 - 23:35 - - - - 03:50 04:40 23:35
Minimum _ 9,1 C 56 % 1012,4 hPa - 0,0 km/h (0 Bft) - - - - 6,0 C 8,5 C 0,0 km/h (0 Bft)
_ Max-Heure 13:35 08:45 23:30 23:35 01:45 - - 23:35 23:35 12:15 13:35 11:05
Maximum _ 19,3 C 84 % 1015,3 hPa 0,0 mm 10,8 km/h
S-SE (2 Bft)
- - 0 min 0 W/m 11,2 C 19,3 C 16,2 km/h
S-SE (3 Bft)
Moyenne _ 12,7 C 73 % 1013,6 hPa #0,0 mm 2,8 km/h (1 Bft) SE - #0 min. 0 W/m 7,8 C 12,7 C 5,1 km/h (1 Bft)
Saint Bonnet de Bellac- Haute Vienne - France